Miscellaneous Local Product
Issued by NWS North Platte, NE

Home | Current Version | Previous Version | Text Only | Print | Product List | Glossary On
Versions: 1 2 3 4 5 6 7 8 9 10 11 12 13 14 15 16 17 18 19 20 21 22 23 24 25 26 27 28 29 30 31 32 33 34 35 36 37 38 39 40 41 42 43 44 45 46 47 48 49 50
000
AXUS43 KLBF 102310
MISLBF


WESTERN AND NORTH CENTRAL NEBRASKA HOURLY WEATHER ROUNDUP
NATIONAL WEATHER SERVICE NORTH PLATTE NE
500 PM CST SAT DEC 10 2016

NOTE: "FAIR" INDICATES FEW OR NO CLOUDS BELOW 12,000 FEET WITH NO
SIGNIFICANT WEATHER AND/OR OBSTRUCTIONS TO VISIBILITY.

NOTE: STATIONS NOT REPORTING VARIABLES SUCH AS SKY/WEATHER OR
PRESSURE ARE PROVIDED BY RAWS AND APRS NETWORKS AND ARE NOT UNDER
NATIONAL WEATHER SERVICE QUALITY CONTROL.

...OBSERVATIONS IN AND NEAR THE EASTERN PANHANDLE OF NEBRASKA...

CITY           SKY/WX    TMP DP  RH WIND       PRES   REMARKS
PINE RIDGE     CLOUDY    16  12  84 E8        29.71F WCI   5
CHADRON        CLOUDY    13   7  77 N6        29.73F WCI   4
ALLIANCE       CLOUDY    30  22  72 SE9       29.68F WCI  22
SIDNEY         CLOUDY    31  23  72 SW8       29.71F WCI  23
CRESCENT LAKE    N/A     28  23  81 S9          N/A  WCI  19
$$

...OBSERVATIONS IN NORTHERN NEBRASKA AND FAR SOUTHERN SOUTH DAKOTA...

CITY           SKY/WX    TMP DP  RH WIND       PRES   REMARKS
WINNER         CLOUDY    20  17  88 E13       29.87S WCI   7
VALENTINE      CLOUDY    16  12  84 NE7       29.81R WCI   6
THEDFORD       CLOUDY    30  23  75 S13       29.78R WCI  20
AINSWORTH      CLOUDY    27  22  82 SE7       29.81F WCI  19
O`NEILL        CLOUDY    28  21  73 SE13      29.87F WCI  18
ORD            CLOUDY    31  18  58 S13       29.87F WCI  21
BROKEN BOW     CLOUDY    29  21  72 S16G24    29.84F WCI  17
BUTTE            N/A     20  17  89 E15         N/A  WCI   6
HALSEY           N/A     29  21  71 S9G18       N/A  WCI  21
CHAMBERS         N/A     28  18  65 MISG        N/A
EWING            N/A     27  22  79 SE6G14      N/A  WCI  21
$$

...OBSERVATIONS IN SOUTHWEST NEBRASKA AND FAR NORTHEAST COLORADO...

CITY           SKY/WX    TMP DP  RH WIND       PRES   REMARKS
WRAY           FAIR      32  27  80 CALM      29.78S
HOLYOKE        FAIR      34  28  80 SE8       29.76S WCI  27
IMPERIAL       CLOUDY    28  23  81 SE8       29.79F WCI  20
OGALLALA       CLOUDY    31  24  77 S6        29.77F WCI  25
NORTH PLATTE   CLOUDY    30  22  72 SE12      29.80F WCI  20
MCCOOK         CLOUDY    33  25  72 SE10      29.83F WCI  25
LEXINGTON      CLOUDY    32  22  68 S9        29.86F WCI  24
STAPLETON        N/A     26  21  80 CALM        N/A
GOTHENBURG       N/A     31  22  69 SE5         N/A  WCI  26
CALLAWAY         N/A     28  22  79 S16         N/A  WCI  16
$$

...OBSERVATIONS IN CENTRAL LINCOLN COUNTY AREA...

CITY           SKY/WX    TMP DP  RH WIND       PRES   REMARKS
N.P. AIRPORT   CLOUDY    30  22  72 SE12      29.80F WCI  20
N.P. DOWNTOWN    N/A     28  23  81 S5          N/A  WCI  23
N.P. SOUTHEAST   N/A     28  22  79 S7G14       N/A  WCI  21
N.P. HILLCREST   N/A     28  23  82 S12         N/A  WCI  18
$$

...SOME OBSERVATIONS FROM AROUND THE REGION...

CITY           SKY/WX    TMP DP  RH WIND       PRES   REMARKS
LARAMIE        CLOUDY    38  28  67 SW13      29.74S WCI  30
CHEYENNE       CLOUDY    46  28  49 W22G35    29.71F
DENVER         CLOUDY    52  26  36 VRB3      29.72F
AKRON          CLOUDY    34  27  75 S5        29.72F WCI  30
SCOTTSBLUFF    CLOUDY    29  20  69 SE5       29.69F WCI  24
RAPID CITY     CLOUDY     6   1  80 E9        29.75F WCI  -8
BISMARCK       CLOUDY    -4  -8  83 E13       30.08S WCI -23
PIERRE         CLOUDY     6   1  80 E17       29.93F WCI -13
SIOUX FALLS    LGT SNOW  16  14  92 E16       30.05S VSB 3/4 WCI   1
OMAHA          CLOUDY    31  15  52 SE16      30.05F WCI  20
GRAND ISLAND   CLOUDY    30  21  69 SE8       29.93F WCI  22
KANSAS CITY    CLOUDY    35  22  58 SE13      30.11F WCI  26
WICHITA        CLOUDY    42  25  50 S14       29.99F
OKLAHOMA CITY  PTCLDY    45  29  53 S18       30.06F
DALLAS         CLOUDY    49  31  49 S17       30.23S
AMARILLO       CLOUDY    64  30  27 S21G28    29.89F
DODGE CITY     CLOUDY    43  28  55 S14       29.86F
HAYS           CLOUDY    38  25  59 SE10      29.89F WCI  31
GOODLAND       CLOUDY    34  25  69 SE10      29.76F WCI  26
$$




USA.gov is the U.S. government's official web portal to all federal, state and local government web resources and services.